Regional Weather Roundup
Issued by NWS State College, PA

Current Version | Previous Version | Text Only | Print | Product List | Glossary On
Versions: 1 2 3 4 5 6 7 8 9 10 11 12 13 14 15 16 17 18 19 20 21 22 23 24 25 26 27 28 29 30 31 32 33 34 35 36 37 38 39 40 41 42 43 44 45 46 47 48 49 50
000
ASUS41 KCTP 260210
RWRCTP

REGIONAL WEATHER ROUNDUP
NATIONAL WEATHER SERVICE STATE COLLEGE PA
900 PM EST SUN JAN 25 2015

Note: "fair" indicates few or no clouds below 12,000 feet with no
significant weather and/or obstructions to visibility.

* = STATION THAT DOES NOT REPORT PRECIPITATION /E.G. RAIN...SNOW...ETC/
    THUNDER OR FOG.

PAZ002>004-007>009-013>016-020>023-029>032-260300-
WESTERN PENNSYLVANIA

CITY           SKY/WX    TMP DP  RH WIND       PRES   REMARKS
ERIE           CLOUDY    19  10  68 NE17      29.94S WCI   4
MEADVILLE      CLOUDY    18  13  80 N9        29.85R WCI   7
FRANKLIN*      CLOUDY    23  12  63 NE9       29.84S WCI  13
NEW CASTLE     LGT SNOW  24  23  96 N9        29.85R FOG     WCI  14
BEAVER COUNTY  NOT AVBL
BUTLER*        CLOUDY    28  27  93 NE9       29.81S
PITTSBURGH INT LGT SNOW  31  30  96 NE7       29.79R VSB 1
PITTSBURGH     LGT SNOW  31  29  92 N3        29.78R VSB 3/4
INDIANA*       CLOUDY    32  30  93 E7G14     29.83S FOG
LATROBE        LGT SNOW  32  32 100 VRB6      29.80F
WASHINGTON CO* CLOUDY    32  30  93 NE5       29.79S
$$

PAZ004>006-010>012-017>019-024>028-033>037-041-042-045-046-049>053-260300-
CENTRAL PENNSYLVANIA

CITY           SKY/WX    TMP DP  RH WIND       PRES   REMARKS
BRADFORD       CLOUDY    17   7  64 E8        29.82R WCI   7
DUBOIS         CLOUDY    27  19  72 NE9       29.79F HAZE
CLEARFIELD     CLOUDY    30  22  72 E5        29.83R
JOHNSTOWN      SNOW      30  29  96 E6        29.74S VSB 1/2
ALTOONA        LGT SNOW  31  31 100 NE6       29.82R FOG
STATE COLLEGE  LGT SNOW  30  27  86 E9        29.85S FOG
WILLIAMSPORT   CLOUDY    29  12  49 N8        29.93R
SELINSGROVE    CLOUDY    33  17  51 NE10      29.92R
FT INDIANTOWN  LGT SNOW  32  32 100 E5        29.91R FOG
CAPITAL CITY   LGT SNOW  34  32  92 E3        29.90S FOG
HARRISBURG     LGT SNOW  34  32  92 CALM      29.90R FOG
YORK           LGT RAIN  35  33  92 NE5       29.88S FOG
$$

PAZ038>040-043-044-047-048-054-055-060>062-067>071-260300-
EASTERN PENNSYLVANIA

CITY           SKY/WX    TMP DP  RH WIND       PRES   REMARKS
SCRANTON       CLOUDY    23  10  57 NE10      29.93R WCI  12
MOUNT POCONO   CLOUDY    22   8  55 N7        29.85R WCI  13
ALLENTOWN      CLOUDY    33  16  49 NE8       29.94R
QUAKERTOWN*    NOT AVBL
READING        CLOUDY    35  29  78 NE5       29.92R
LANCASTER      LGT RAIN  34  32  92 NE9       29.90R FOG
COATESVILLE    MIX PCPN  36  36 100 CALM      29.91R
POTTSTOWN      CLOUDY    35  30  82 CALM      29.93R
BLUE BELL      CLOUDY    36  34  93 CALM      29.91R
DOYLESTOWN     CLOUDY    33  19  56 NE8       29.91R
WILLOW GROVE   NOT AVBL
NORTH PHILA    CLOUDY    40  30  67 NE7       29.94R
PHILADELPHIA   LGT RAIN  39  34  82 NE5       29.93R
$$


USA.gov is the U.S. government's official web portal to all federal, state and local government web resources and services.